Tracking 20942 objects as of 9-Jul-2020
HD Live streaming from Space Station
objects crossing your sky now

FAISAT

Track FAISAT now!
10-day predictions
FAISAT is classified as:


NORAD ID: 23465
Int'l Code: 1995-002C
Perigee: 971.3 km
Apogee: 1,028.5 km
Inclination: 82.9 °
Period: 105.0 minutes
Semi major axis: 7370 km
RCS: 0.6839 m2 (medium)
Launch date: January 24, 1995
Source: United States (US)
Launch site: PLESETSK MISSILE AND SPACE COMPLEX (PKMTR)
aabbcc
Your satellite tracking list
Your tracking list is empty




NASA's NSSDC Master Catalog

Two Line Element Set (TLE):
1 23465U 95002C   20191.47708245 +.00000009 +00000-0 -66870-5 0  9998
2 23465 082.9262 184.9334 0038810 065.4570 044.5169 13.71895264274558
Source of the keplerian elements: AFSPC